Regional Weather Roundup
Issued by NWS Newport/Morehead, NC

Current Version | Previous Version | Graphics & Text | Print | Product List | Glossary Off
Versions: 1 2 3 4 5 6 7 8 9 10 11 12 13 14 15 16 17 18 19 20 21 22 23 24 25 26 27 28 29 30 31 32 33 34 35 36 37 38 39 40 41 42 43 44 45 46 47 48 49 50

000
ASUS42 KMHX 282113
RWRMHX
WEATHER ROUNDUP FOR EASTERN NORTH CAROLINA
NATIONAL WEATHER SERVICE NEWPORT/MOREHEAD CITY NC
500 PM EDT TUE JUL 28 2015

NOTE: "FAIR" INDICATES FEW OR NO CLOUDS BELOW 12,000 FEET
WITH NO SIGNIFICANT WEATHER AND/OR OBSTRUCTIONS TO VISIBILITY

NCZ015>017-031-032-045>047-102-103-282200-
NORTH COAST

CITY           SKY/WX    TMP DP  RH WIND       PRES   REMARKS
EDENTON          N/A     85  70  62 E5        29.99R
ELIZABETH CITY MOSUNNY   84  70  62 E8        29.99S
KITTY HAWK     CLEAR     90  69  49 SE6       29.98F
MANTEO         SUNNY     84  69  61 S8        29.99F

$$

NCZ045>047-081-094-103-104-282200-
CENTRAL COAST

CITY           SKY/WX    TMP DP  RH WIND       PRES   REMARKS
FRISCO         SUNNY     86  70  58 E7        29.99F
SWANQUARTER      N/A     86 N/A N/A SE5G13    29.94F

$$

NCZ095-097-098-100-101-282200-
SOUTHERN COAST

CITY           SKY/WX    TMP DP  RH WIND       PRES   REMARKS
BEAUFORT       SUNNY     84  71  65 E9        29.98F
CEDAR ISLAND     N/A     84 N/A N/A E6G12     30.03S
JACKSONVILLE   SUNNY     86  69  56 SE9       29.97F
PINEY ISLAND   CLEAR    N/A N/A N/A E10       29.99S
WILMINGTON     SUNNY     86  69  56 E10       29.97S


$$

NCZ011>013-027>030-043-044-078>080-089-090>093-098-282200-
COASTAL PLAIN

CITY           SKY/WX    TMP DP  RH WIND       PRES   REMARKS
AHOSKIE        PTSUNNY   85  69  57 SE7       29.97F
CLINTON        SUNNY     91  71  53 S3        29.96F
ELIZABETHTOWN  MOSUNNY   90  68  47 S6        29.96F
GOLDSBORO      SUNNY     90  72  54 E7        29.94F
GREENVILLE     MOSUNNY   90  70  51 SE5       29.99F
HAVELOCK       SUNNY     88  67  49 E12       29.99S
KENANSVILLE    MOSUNNY   88  68  51 SE3       29.97F
KINSTON        MOSUNNY   88  68  51 SE7       29.98S
NEW BERN       SUNNY     88  71  57 E8        29.99S
RICHLANDS      MOSUNNY   90  70  51 SE8       29.97S
ROCKY MOUNT    MOSUNNY   87  68  52 S5        29.97F
WASHINGTON     MOSUNNY   87  71  59 SE10      29.98F
WHITEVILLE     MOSUNNY   89  69  50 E7        29.95F

$$

AMZ130-135-150-152-154-156-158-170-250-252-270-ANZ085-086-088-633-658-670-282200-
MARINE OBSERVATIONS

STATION/POSITION TIME  TEMP    WIND        PRES    WAVE   SWELL
                       AIR SEA DIR/SP/G            HT/PER HT/PER
                 (UTC) (F)     (DEG/KT/KT) (MB)    (FT/S) (FT/S)
CHESAPEAKE LIGHT 2100   80     160/ 11/ 12 1016.3
64 E VA BEACH    2050   81 82  190/  4/  4 1015.7    2/ 6   2/ 6
DUCK             2000   82 78  130/ 12/ 12 1014.7
2 E DUCK         2011      81                N/A     2/11
OREGON INLET     2000   83 85   90/  7/  9 1015.9
13E OREGON INLT  2100      82                N/A     2/11
HATTERAS CG      2000   83 83  110/  6/  9 1015.6
DIAMOND BUOY     NOT AVBL
CAPE LOOKOUT     2000   82      90/ 11/ 12 1015.1
BEAUFORT LAB     2000   82 82  130/ 10/ 13 1014.7
30 SE NEW RVR IN NOT AVBL
27 SE WRIGHTSVLE NOT AVBL
5 SE WRIGHTSVLE  NOT AVBL
225 S CAPE HAT   2050   81 82  220/ 21/ 25 1014.2    8/ 7
41 SE CHARLESTON 2050   84 85   50/ 12/ 12 1013.4    3/ 5   2/ 7

$$



USA.gov is the U.S. government's official web portal to all federal, state and local government web resources and services.